SCP
0 0 0 0 0 0 0 0 0 0 0 0 0 0 0 0 0 0 0 0 0 0 0 -0 -0 -0 0 0 0 0 0 0 0 0 0 0 0 0 0 0 0 0 0 0
0 0 0 0 0 0 0 0 0 0 0 0 0 0 0 0 0 0 0 0 0 0 0 0 -0 -0 -0 0 0 0 -0 0 0 0 0 0 0 0 0 0 0 0 0 0
0 0 0 0 0 0 0 0 0 0 0 0 -0 0 0 0 0 0 0 0 0 0 0 0 -0 -0 -0 0 0 0 0 0 0 -0 -0 0 0 0 0 0 0 0 0 0
0 0 0 0 0 0 0 0 0 0 0 0 -0 0 0 0 0 0 0 0 0 0 0 0 0 -0 -0 -0 -0 0 -0 -0 0 -0 0 -0 0 -0 0 0 0 0 -0 0
0 0 0 0 0 0 0 0 0 0 0 0 0 -0 0 0 0 0 0 0 0 0 0 0 0 0 -0 -0 0 0 0 0 0 -0 0 0 -0 -0 -0 -0 -0 -0 -0 -0
0 0 0 0 0 0 0 0 0 0 0 0 0 0 0 0 0 -0 -0 0 0 0 0 0 0 0 0 0 -0 -0 0 0 0 -0 0 -0 -0 -0 -0 -0 -0 -0 0 0
0 0 0 0 0 0 0 0 0 0 0 0 0 0 0 0 0 0 -0 -0 -0 0 0 0 0 0 0 0 0 0 0 0 0 -0 -0 -0 -0 -0 -0 0 0 0 0 0
0 0 0 0 0 0 0 0 0 0 0 0 0 0 0 0 0 0 0 0 0 0 0 0 0 0 0 0 0 0 0 0 0 0 0 0 0 0 0 0 0 0 0 0
0 0 0 0 0 0 0 0 0 0 0 0 0 0 0 0 0 0 0 0 0 0 0 0 0 0 0 0 0 0 0 0 0 0 0 0 0 0 0 0 0 -0 -0 -0
0 0 0 0 0 0 0 0 0 0 0 0 0 0 0 -0 -0 -0 -0 -0 -0 -0 -0 -0 0 0 0 0 0 0 0 0 0 0 0 0 0 0 0 0 0 0 0 0
0 0 0 0 0 0 0 0 0 0 0 0 0 0 0 0 0 -0 -0 -0 -0 -0 -0 -0 -0 -0 -0 -0 -0 0 -0 -0 -0 -0 0 0 -0 -0 -0 -0 -0 0 0 0
0 0 0 0 0 0 0 0 0 0 0 0 0 0 0 0 0 0 0 -0 -0 -0 -0 -0 -0 -0 -0 -0 -0 -0 0 0 -0 -0 0 0 0 0 -0 0 0 0 0 0
0 0 0 0 0 0 0 0 0 0 0 0 0 0 0 0 0 0 0 0 0 -0 -0 0 -0 -0 -0 -0 -0 -0 -0 -0 -0 0 0 0 0 0 0 0 0 0 0 0
0 0 0 0 0 0 0 0 0 0 0 0 0 0 0 0 0 0 0 0 0 0 0 0 0 0 0 0 0 0 0 0 0 0 0 0 0 0 0 0 0 0 0 0
0 0 0 0 0 0 0 0 0 0 0 0 0 0 0 0 0 0 0 0 0 0 0 0 0 0 0 0 0 0 0 0 0 0 0 0 0 0 0 0 0 0 0 0
0 0 0 0 0 0 0 0 0 0 0 0 0 0 0 0 0 0 0 0 0 0 0 0 0 0 0 0 0 0 0 0 0 0 0 0 0 0 0 0 0 0 0 0
0 0 0 0 0 0 0 0 0 0 0 0 0 0 0 0 0 0 0 0 0 0 0 0 0 0 0 0 0 0 0 0 0 0 0 0 0 0 0 0 0 0 0 0
0 0 0 0 0 0 0 0 0 0 0 0 0 0 0 0 0 0 0 0 0 0 0 0 0 0 0 0 0 0 0 0 0 0 0 0 0 0 0 0 0 0 0 0
0 0 0 0 0 0 0 0 0 0 0 0 0 0 0 0 0 0 0 0 0 0 0 0 0 0 0 0 0 0 0 0 0 0 0 0 0 0 0 0 0 0 0 0
0 0 0 0 0 0 0 0 0 0 0 0 0 0 0 0 0 0 0 0 0 0 0 0 0 0 0 0 0 0 0 0 0 0 0 0 0 0 0 0 0 0 0 0
0 0 0 0 0 0 0 0 0 0 0 0 0 0 0 0 0 0 0 0 0 0 0 0 0 0 0 0 0 0 0 0 0 0 0 0 0 0 0 0 0 0 0 0
0 0 0 0 0 0 0 0 0 0 0 0 0 0 0 0 0 0 0 0 0 0 0 0 0 0 0 0 0 0 0 0 0 0 0 0 0 0 0 0 0 0 0 0
0 0 0 0 0 0 0 0 0 0 0 0 0 0 0 0 0 0 0 0 0 0 0 0 0 0 0 0 0 0 0 0 0 0 0 0 0 0 0 0 0 0 0 0
0 0 0 0 0 0 0 0 0 0 0 0 0 0 0 0 0 0 0 0 0 0 0 0 0 0 0 0 0 0 0 0 0 0 0 0 0 0 0 0 0 0 0 0
0 0 0 0 0 0 0 0 0 0 0 0 0 0 0 0 0 0 0 0 0 0 0 0 0 0 0 0 0 0 0 0 0 0 0 0 0 0 0 0 0 0 0 0
0 0 0 0 0 0 0 0 0 0 0 0 0 0 0 0 0 0 0 0 0 0 0 0 0 0 0 0 0 0 0 0 0 0 0 0 0 0 0 0 0 0 0 0
0 0 0 0 0 0 0 0 0 0 0 0 0 0 0 0 0 0 0 0 0 0 0 0 0 0 0 0 0 0 0 0 0 0 0 0 0 0 0 0 0 0 0 0
Wind_Speed_500mb
12 16 9 11 13 15 17 17 9 7 9 25 19 17 33 26 20 17 14 11 12 15 20 25 25 25 24 24 25 27 27 28 27 24 18 15 13 13 16 13 14 14 13 13
9 4 3 10 18 17 11 10 23 29 41 31 21 6 10 7 15 16 12 11 10 11 19 22 25 24 23 22 22 26 26 25 25 22 19 19 21 19 17 11 11 13 4 2
10 3 9 12 13 23 10 12 12 13 21 11 6 13 10 9 16 15 13 12 10 10 15 18 21 21 20 19 19 15 19 26 25 18 15 20 21 18 18 13 17 16 14 10
7 8 6 11 6 14 15 12 32 18 16 14 14 18 18 16 17 17 15 12 9 10 10 14 17 18 17 18 17 16 19 22 26 19 14 15 17 19 17 14 13 20 24 20
4 3 15 1 8 12 14 13 30 36 33 26 24 22 39 29 27 21 17 13 9 10 8 11 15 15 14 15 14 16 19 23 24 24 17 15 15 19 23 21 21 20 29 23
1 5 9 6 8 12 6 9 15 44 27 24 20 5 9 5 11 25 27 18 12 10 8 6 10 11 11 12 13 16 18 21 23 24 18 19 20 21 22 21 19 20 22 19
6 6 17 10 22 18 10 10 10 22 24 31 16 23 7 8 10 17 22 20 18 15 13 7 5 6 3 6 7 9 13 17 19 16 18 19 18 19 22 21 21 24 25 26
6 3 16 33 15 15 5 6 8 10 19 34 46 19 27 15 15 17 18 20 22 22 18 15 9 5 4 3 4 7 7 12 17 15 16 17 17 17 19 20 21 24 23 25
20 13 4 58 15 37 6 10 11 17 13 20 32 41 34 32 27 23 21 22 24 25 25 23 19 14 10 10 10 9 9 10 12 14 16 18 18 17 16 16 17 16 18 19
4 14 43 47 41 53 48 41 30 23 23 24 26 24 34 38 40 36 33 29 29 31 32 30 27 23 19 16 15 15 13 12 12 12 12 13 13 14 15 15 15 15 15 15
11 30 41 54 49 49 46 53 63 62 56 47 41 41 36 36 42 46 43 38 38 38 35 32 33 32 30 24 22 23 22 20 17 16 16 17 17 18 18 18 16 15 13 13
15 29 18 21 29 23 32 34 32 45 55 57 64 66 57 54 46 44 50 50 50 46 44 40 42 39 39 36 31 29 29 27 24 23 24 24 25 25 23 21 21 20 20 21
37 54 61 62 58 61 55 51 53 57 58 56 50 51 54 59 62 55 47 55 60 56 48 47 49 48 46 45 43 39 34 32 32 31 30 29 29 29 28 28 28 26 25 24
73 73 75 78 71 59 53 48 45 44 48 51 52 52 60 61 51 61 67 59 54 60 60 57 58 58 53 53 53 50 46 43 40 38 36 35 34 33 34 34 33 33 32 30
77 76 75 79 85 86 80 74 72 69 66 63 59 52 50 54 52 56 57 58 63 61 65 67 68 66 63 63 64 61 58 56 51 47 45 42 40 41 41 40 41 40 39 38
71 59 61 80 82 81 82 83 77 73 69 64 65 66 66 62 60 53 48 54 62 68 72 76 77 70 69 70 69 69 68 64 62 58 55 54 54 53 52 51 49 49 48 44
62 61 75 83 93 88 83 80 78 75 70 69 63 52 53 58 69 77 72 68 64 59 60 77 79 75 75 73 76 77 75 72 71 69 67 65 63 61 59 58 57 55 52 50
88 108 107 108 101 94 88 79 74 65 62 62 61 63 64 63 64 64 68 81 78 75 75 69 78 80 80 80 80 82 82 79 78 77 75 75 73 70 67 65 62 60 57 56
70 71 79 84 75 74 71 65 65 61 60 60 61 65 67 72 72 66 55 65 70 82 88 81 79 77 83 87 87 87 87 86 86 84 81 80 80 78 76 72 68 65 63 63
65 71 60 52 54 55 53 48 48 47 45 46 50 54 58 60 63 69 76 82 73 61 54 63 71 78 78 82 89 94 94 94 93 90 87 88 87 84 81 77 73 70 69 68
63 52 41 33 38 39 38 39 39 38 34 39 43 43 44 46 50 55 62 74 77 68 68 72 74 67 62 67 79 94 101 100 99 98 96 93 90 87 83 79 76 75 74 72
46 35 35 37 38 38 35 33 34 32 30 31 34 37 38 39 38 42 44 52 49 47 52 63 72 73 70 61 67 77 90 100 100 101 102 99 95 89 82 79 78 78 77 75
38 36 38 38 35 32 28 26 26 25 22 24 25 26 28 29 30 33 34 34 36 41 46 53 53 51 57 55 54 66 76 80 91 99 101 100 94 88 83 78 74 73 74 75
34 36 36 34 30 26 23 18 17 17 17 19 20 21 22 23 24 28 31 35 35 32 33 39 46 51 54 56 58 59 67 72 74 81 89 91 91 87 81 74 70 67 67 68
31 27 25 24 22 17 18 19 21 19 19 20 22 23 24 24 23 23 23 25 27 27 28 30 34 40 46 46 47 52 55 57 62 66 72 78 80 78 75 70 66 63 61 61
22 20 19 16 14 13 13 14 16 17 18 18 17 17 16 16 16 16 16 17 18 20 21 22 23 26 30 35 40 43 43 47 47 51 56 58 61 64 64 63 60 57 56 55
16 14 12 12 11 9 10 10 9 8 8 10 12 13 15 17 17 17 17 18 19 19 18 18 19 20 22 23 23 25 27 28 30 34 40 42 44 46 48 51 51 50 50 51
Wind_Direction_500mb
260 266 260 236 219 206 215 214 177 249 267 283 278 253 280 281 258 250 260 297 320 357 7 8 7 15 21 23 22 20 24 28 35 39 48 60 79 94 137 156 155 178 199 225
289 352 342 270 238 209 231 257 266 268 283 277 284 272 288 251 225 230 265 300 321 354 9 5 8 13 16 25 28 32 41 42 44 47 59 81 90 90 86 106 126 124 142 166
275 300 323 302 223 190 185 199 172 190 226 226 276 263 268 230 226 240 256 283 316 339 2 1 2 9 17 22 25 30 55 59 60 68 89 109 112 115 114 119 128 117 111 97
261 354 1 240 143 181 195 223 213 256 241 222 261 278 269 253 238 235 238 253 287 305 347 357 2 5 19 23 23 23 39 62 66 82 90 102 105 108 107 113 123 130 124 125
126 204 287 276 195 172 177 279 209 223 246 235 259 277 281 259 246 238 238 239 246 274 319 353 357 1 23 34 40 44 47 58 64 75 83 89 106 107 102 105 115 117 115 109
51 126 225 238 168 169 134 301 204 205 225 213 171 241 253 214 214 213 233 238 239 246 266 325 347 355 21 43 48 62 61 68 69 71 73 76 83 88 99 96 111 113 114 127
201 253 284 220 160 145 79 241 194 206 219 201 189 213 209 200 201 208 229 234 231 229 242 249 304 332 8 66 73 87 103 104 98 101 106 104 109 113 111 122 127 132 136 129
147 195 279 149 126 175 201 190 225 224 210 217 224 240 239 239 229 222 223 223 225 228 233 234 236 254 255 200 171 146 141 129 125 138 133 131 127 123 126 130 127 117 123 134
194 216 262 185 215 216 248 247 234 252 249 231 234 239 240 243 239 239 234 226 225 229 233 232 231 232 218 216 214 195 170 159 152 150 148 143 139 129 122 119 122 135 145 147
56 251 233 237 242 250 252 258 252 257 256 254 249 251 251 246 243 239 237 236 233 231 234 232 230 231 229 220 220 221 207 195 180 169 166 156 152 152 155 159 161 164 164 161
265 284 277 268 252 268 276 264 260 260 260 259 264 264 262 259 251 245 243 240 237 239 239 235 234 231 233 231 227 227 225 220 213 206 199 191 186 182 178 177 179 180 178 179
215 217 219 259 283 285 283 280 284 280 276 267 260 265 267 264 262 255 245 242 239 239 238 233 233 233 235 235 235 236 233 230 226 222 219 212 206 200 199 196 196 200 202 202
232 253 269 278 279 278 275 278 279 280 280 279 276 271 268 271 261 255 254 246 244 246 247 240 236 236 234 235 236 239 239 237 237 236 233 229 226 220 215 211 211 215 219 219
254 256 266 267 271 282 280 279 278 276 272 268 273 270 266 266 263 250 247 249 251 248 247 244 240 239 237 237 237 236 236 237 239 240 241 241 240 237 234 231 230 228 227 227
258 255 253 268 275 275 276 276 277 277 274 270 273 270 269 263 263 263 257 252 246 248 246 244 244 242 238 237 238 238 237 237 238 238 239 240 240 241 243 240 240 238 234 232
263 263 268 266 270 273 274 274 274 276 278 277 271 264 266 265 267 265 259 255 249 250 245 244 244 245 243 241 242 242 242 240 240 240 240 241 240 239 239 239 238 238 239 238
245 262 263 267 271 277 278 280 278 274 273 273 268 269 268 263 259 255 252 254 255 257 254 246 250 249 248 245 246 247 246 244 243 242 241 242 244 245 246 245 245 245 245 242
259 268 269 269 273 278 280 280 279 273 268 267 268 267 262 259 260 263 258 254 254 252 251 251 249 246 246 247 247 248 248 249 247 247 246 245 246 248 248 248 248 247 246 245
261 262 264 267 272 274 274 275 275 275 272 270 267 262 260 257 255 256 258 258 253 249 247 248 252 252 248 246 246 247 248 247 247 248 248 249 248 248 249 249 250 250 249 248
258 260 264 271 269 270 277 275 272 267 268 267 264 261 259 257 257 257 254 257 259 261 259 258 258 258 255 251 247 247 247 246 247 248 248 248 250 250 251 252 251 251 251 250
262 266 262 259 265 265 271 269 262 264 264 260 261 262 263 264 260 258 253 254 259 261 260 260 261 261 260 254 249 246 247 246 246 248 249 249 251 252 253 254 254 253 253 253
259 254 254 259 259 263 269 272 273 272 276 273 271 272 270 270 268 265 262 266 270 265 255 252 253 256 259 259 252 251 250 248 248 248 250 250 252 254 256 257 256 256 256 255
252 255 260 256 259 266 265 262 266 271 274 278 278 276 279 281 282 283 284 278 277 277 270 260 254 250 253 259 258 251 252 252 250 250 251 252 254 257 259 260 261 261 259 257
253 243 244 247 248 251 259 266 271 278 280 281 288 295 298 298 293 289 291 292 293 289 279 273 267 261 257 252 251 251 249 250 251 251 252 254 254 256 259 261 263 264 261 257
229 226 226 232 230 226 241 257 270 282 290 298 301 302 303 301 297 295 292 290 291 288 284 280 271 265 263 263 262 258 256 257 256 253 253 253 253 255 258 261 263 264 262 259
224 220 223 227 234 242 257 275 286 293 297 300 302 302 301 300 299 300 301 297 294 293 293 287 279 275 273 270 267 266 263 259 256 252 252 253 253 253 257 262 264 264 263 261
222 219 214 216 224 231 239 241 247 271 295 314 322 319 313 310 307 306 306 306 304 302 301 297 290 282 274 268 265 265 261 256 255 255 255 257 257 257 258 259 260 260 260 258
Wind_Speed_850mb
12 16 9 11 13 15 17 17 9 7 9 25 19 17 33 26 20 17 14 11 12 15 20 25 25 25 24 24 25 27 27 28 27 24 18 15 13 13 16 13 14 14 13 13
9 4 3 10 18 17 11 10 23 29 41 31 21 6 10 7 15 16 12 11 10 11 19 22 25 24 23 22 22 26 26 25 25 22 19 19 21 19 17 11 11 13 4 2
10 3 9 12 13 23 10 12 12 13 21 11 6 13 10 9 16 15 13 12 10 10 15 18 21 21 20 19 19 15 19 26 25 18 15 20 21 18 18 13 17 16 14 10
7 8 6 11 6 14 15 12 32 18 16 14 14 18 18 16 17 17 15 12 9 10 10 14 17 18 17 18 17 16 19 22 26 19 14 15 17 19 17 14 13 20 24 20
4 3 15 1 8 12 14 13 30 36 33 26 24 22 39 29 27 21 17 13 9 10 8 11 15 15 14 15 14 16 19 23 24 24 17 15 15 19 23 21 21 20 29 23
1 5 9 6 8 12 6 9 15 44 27 24 20 5 9 5 11 25 27 18 12 10 8 6 10 11 11 12 13 16 18 21 23 24 18 19 20 21 22 21 19 20 22 19
6 6 17 10 22 18 10 10 10 22 24 31 16 23 7 8 10 17 22 20 18 15 13 7 5 6 3 6 7 9 13 17 19 16 18 19 18 19 22 21 21 24 25 26
6 3 16 33 15 15 5 6 8 10 19 34 46 19 27 15 15 17 18 20 22 22 18 15 9 5 4 3 4 7 7 12 17 15 16 17 17 17 19 20 21 24 23 25
20 13 4 58 15 37 6 10 11 17 13 20 32 41 34 32 27 23 21 22 24 25 25 23 19 14 10 10 10 9 9 10 12 14 16 18 18 17 16 16 17 16 18 19
4 14 43 47 41 53 48 41 30 23 23 24 26 24 34 38 40 36 33 29 29 31 32 30 27 23 19 16 15 15 13 12 12 12 12 13 13 14 15 15 15 15 15 15
11 30 41 54 49 49 46 53 63 62 56 47 41 41 36 36 42 46 43 38 38 38 35 32 33 32 30 24 22 23 22 20 17 16 16 17 17 18 18 18 16 15 13 13
15 29 18 21 29 23 32 34 32 45 55 57 64 66 57 54 46 44 50 50 50 46 44 40 42 39 39 36 31 29 29 27 24 23 24 24 25 25 23 21 21 20 20 21
37 54 61 62 58 61 55 51 53 57 58 56 50 51 54 59 62 55 47 55 60 56 48 47 49 48 46 45 43 39 34 32 32 31 30 29 29 29 28 28 28 26 25 24
73 73 75 78 71 59 53 48 45 44 48 51 52 52 60 61 51 61 67 59 54 60 60 57 58 58 53 53 53 50 46 43 40 38 36 35 34 33 34 34 33 33 32 30
77 76 75 79 85 86 80 74 72 69 66 63 59 52 50 54 52 56 57 58 63 61 65 67 68 66 63 63 64 61 58 56 51 47 45 42 40 41 41 40 41 40 39 38
71 59 61 80 82 81 82 83 77 73 69 64 65 66 66 62 60 53 48 54 62 68 72 76 77 70 69 70 69 69 68 64 62 58 55 54 54 53 52 51 49 49 48 44
62 61 75 83 93 88 83 80 78 75 70 69 63 52 53 58 69 77 72 68 64 59 60 77 79 75 75 73 76 77 75 72 71 69 67 65 63 61 59 58 57 55 52 50
88 108 107 108 101 94 88 79 74 65 62 62 61 63 64 63 64 64 68 81 78 75 75 69 78 80 80 80 80 82 82 79 78 77 75 75 73 70 67 65 62 60 57 56
70 71 79 84 75 74 71 65 65 61 60 60 61 65 67 72 72 66 55 65 70 82 88 81 79 77 83 87 87 87 87 86 86 84 81 80 80 78 76 72 68 65 63 63
65 71 60 52 54 55 53 48 48 47 45 46 50 54 58 60 63 69 76 82 73 61 54 63 71 78 78 82 89 94 94 94 93 90 87 88 87 84 81 77 73 70 69 68
63 52 41 33 38 39 38 39 39 38 34 39 43 43 44 46 50 55 62 74 77 68 68 72 74 67 62 67 79 94 101 100 99 98 96 93 90 87 83 79 76 75 74 72
46 35 35 37 38 38 35 33 34 32 30 31 34 37 38 39 38 42 44 52 49 47 52 63 72 73 70 61 67 77 90 100 100 101 102 99 95 89 82 79 78 78 77 75
38 36 38 38 35 32 28 26 26 25 22 24 25 26 28 29 30 33 34 34 36 41 46 53 53 51 57 55 54 66 76 80 91 99 101 100 94 88 83 78 74 73 74 75
34 36 36 34 30 26 23 18 17 17 17 19 20 21 22 23 24 28 31 35 35 32 33 39 46 51 54 56 58 59 67 72 74 81 89 91 91 87 81 74 70 67 67 68
31 27 25 24 22 17 18 19 21 19 19 20 22 23 24 24 23 23 23 25 27 27 28 30 34 40 46 46 47 52 55 57 62 66 72 78 80 78 75 70 66 63 61 61
22 20 19 16 14 13 13 14 16 17 18 18 17 17 16 16 16 16 16 17 18 20 21 22 23 26 30 35 40 43 43 47 47 51 56 58 61 64 64 63 60 57 56 55
16 14 12 12 11 9 10 10 9 8 8 10 12 13 15 17 17 17 17 18 19 19 18 18 19 20 22 23 23 25 27 28 30 34 40 42 44 46 48 51 51 50 50 51
Wind_Direction_850mb
260 266 260 236 219 206 215 214 177 249 267 283 278 253 280 281 258 250 260 297 320 357 7 8 7 15 21 23 22 20 24 28 35 39 48 60 79 94 137 156 155 178 199 225
289 352 342 270 238 209 231 257 266 268 283 277 284 272 288 251 225 230 265 300 321 354 9 5 8 13 16 25 28 32 41 42 44 47 59 81 90 90 86 106 126 124 142 166
275 300 323 302 223 190 185 199 172 190 226 226 276 263 268 230 226 240 256 283 316 339 2 1 2 9 17 22 25 30 55 59 60 68 89 109 112 115 114 119 128 117 111 97
261 354 1 240 143 181 195 223 213 256 241 222 261 278 269 253 238 235 238 253 287 305 347 357 2 5 19 23 23 23 39 62 66 82 90 102 105 108 107 113 123 130 124 125
126 204 287 276 195 172 177 279 209 223 246 235 259 277 281 259 246 238 238 239 246 274 319 353 357 1 23 34 40 44 47 58 64 75 83 89 106 107 102 105 115 117 115 109
51 126 225 238 168 169 134 301 204 205 225 213 171 241 253 214 214 213 233 238 239 246 266 325 347 355 21 43 48 62 61 68 69 71 73 76 83 88 99 96 111 113 114 127
201 253 284 220 160 145 79 241 194 206 219 201 189 213 209 200 201 208 229 234 231 229 242 249 304 332 8 66 73 87 103 104 98 101 106 104 109 113 111 122 127 132 136 129
147 195 279 149 126 175 201 190 225 224 210 217 224 240 239 239 229 222 223 223 225 228 233 234 236 254 255 200 171 146 141 129 125 138 133 131 127 123 126 130 127 117 123 134
194 216 262 185 215 216 248 247 234 252 249 231 234 239 240 243 239 239 234 226 225 229 233 232 231 232 218 216 214 195 170 159 152 150 148 143 139 129 122 119 122 135 145 147
56 251 233 237 242 250 252 258 252 257 256 254 249 251 251 246 243 239 237 236 233 231 234 232 230 231 229 220 220 221 207 195 180 169 166 156 152 152 155 159 161 164 164 161
265 284 277 268 252 268 276 264 260 260 260 259 264 264 262 259 251 245 243 240 237 239 239 235 234 231 233 231 227 227 225 220 213 206 199 191 186 182 178 177 179 180 178 179
215 217 219 259 283 285 283 280 284 280 276 267 260 265 267 264 262 255 245 242 239 239 238 233 233 233 235 235 235 236 233 230 226 222 219 212 206 200 199 196 196 200 202 202
232 253 269 278 279 278 275 278 279 280 280 279 276 271 268 271 261 255 254 246 244 246 247 240 236 236 234 235 236 239 239 237 237 236 233 229 226 220 215 211 211 215 219 219
254 256 266 267 271 282 280 279 278 276 272 268 273 270 266 266 263 250 247 249 251 248 247 244 240 239 237 237 237 236 236 237 239 240 241 241 240 237 234 231 230 228 227 227
258 255 253 268 275 275 276 276 277 277 274 270 273 270 269 263 263 263 257 252 246 248 246 244 244 242 238 237 238 238 237 237 238 238 239 240 240 241 243 240 240 238 234 232
263 263 268 266 270 273 274 274 274 276 278 277 271 264 266 265 267 265 259 255 249 250 245 244 244 245 243 241 242 242 242 240 240 240 240 241 240 239 239 239 238 238 239 238
245 262 263 267 271 277 278 280 278 274 273 273 268 269 268 263 259 255 252 254 255 257 254 246 250 249 248 245 246 247 246 244 243 242 241 242 244 245 246 245 245 245 245 242
259 268 269 269 273 278 280 280 279 273 268 267 268 267 262 259 260 263 258 254 254 252 251 251 249 246 246 247 247 248 248 249 247 247 246 245 246 248 248 248 248 247 246 245
261 262 264 267 272 274 274 275 275 275 272 270 267 262 260 257 255 256 258 258 253 249 247 248 252 252 248 246 246 247 248 247 247 248 248 249 248 248 249 249 250 250 249 248
258 260 264 271 269 270 277 275 272 267 268 267 264 261 259 257 257 257 254 257 259 261 259 258 258 258 255 251 247 247 247 246 247 248 248 248 250 250 251 252 251 251 251 250
262 266 262 259 265 265 271 269 262 264 264 260 261 262 263 264 260 258 253 254 259 261 260 260 261 261 260 254 249 246 247 246 246 248 249 249 251 252 253 254 254 253 253 253
259 254 254 259 259 263 269 272 273 272 276 273 271 272 270 270 268 265 262 266 270 265 255 252 253 256 259 259 252 251 250 248 248 248 250 250 252 254 256 257 256 256 256 255
252 255 260 256 259 266 265 262 266 271 274 278 278 276 279 281 282 283 284 278 277 277 270 260 254 250 253 259 258 251 252 252 250 250 251 252 254 257 259 260 261 261 259 257
253 243 244 247 248 251 259 266 271 278 280 281 288 295 298 298 293 289 291 292 293 289 279 273 267 261 257 252 251 251 249 250 251 251 252 254 254 256 259 261 263 264 261 257
229 226 226 232 230 226 241 257 270 282 290 298 301 302 303 301 297 295 292 290 291 288 284 280 271 265 263 263 262 258 256 257 256 253 253 253 253 255 258 261 263 264 262 259
224 220 223 227 234 242 257 275 286 293 297 300 302 302 301 300 299 300 301 297 294 293 293 287 279 275 273 270 267 266 263 259 256 252 252 253 253 253 257 262 264 264 263 261
222 219 214 216 224 231 239 241 247 271 295 314 322 319 313 310 307 306 306 306 304 302 301 297 290 282 274 268 265 265 261 256 255 255 255 257 257 257 258 259 260 260 260 258